Location: Courcelles
(49.2596°N, 1.7419°E)
Time: 03:09:58
(UTC+00:00)

Resurs 1-3 - Pass Details

Date: 17 November 2025
Orbit: 613 x 615 km, 97.7° (Epoch: 04 December)

Event Time Altitude Azimuth Distance (km) Brightness Sun altitude
Rises 18:16:49 0° 166° (SSE) 2,872 6.9 -20.6°
Reaches altitude 10° 18:18:59 10° 166° (SSE) 1,971 6.0 -21.0°
Maximum altitude 18:23:17 87° 256° (WSW) 623 3.5 -21.7°
Drops below altitude 10° 18:27:37 10° 346° (NNW) 1,986 6.3 -22.4°
Sets 18:29:48 0° 347° (NNW) 2,895 7.1 -22.8°
